SCP
0 0 0 0 0 0 0 0 0 0 0 0 0 0 0 0 0 0 0 0 0 0 0 0 0 0 0 0 0 0 0 0
0 0 0 0 0 0 0 0 0 0 0 0 0 0 0 0 0 0 0 0 0 0 0 0 0 0 0 0 0 0 0 0
0 0 0 0 0 0 0 0 0 0 0 0 0 0 0 0 0 0 0 0 0 0 0 0 0 0 0 0 0 0 0 0
0 0 0 0 0 0 0 0 0 0 0 0 0 0 0 0 0 0 0 0 0 0 0 0 0 0 0 0 0 0 0 0
0 0 0 0 0 0 0 0 0 0 0 0 0 0 0 0 0 0 0 0 0 0 0 0 0 0 0 0 0 0 0 0
0 0 0 0 0 0 0 0 0 0 0 0 0 0 0 0 0 0 0 0 0 0 0 0 0 0 0 0 0 0 0 0
0 0 0 0 0 0 0 0 0 0 0 0 0 0 0 0 0 0 0 0 0 0 0 0 0 0 0 0 0 0 0 0
0 0 0 0 0 0 0 0 0 0 0 0 0 0 0 0 0 0 0 0 0 0 0 0 0 0 0 0 0 0 0 0
0 0 0 0 0 0 0 0 0 0 0 0 0 0 0 0 0 0 0 0 0 0 0 0 0 0 0 0 0 0 0 0
0 0 0 0 0 0 0 0 0 0 0 0 0 0 0 0 0 0 0 0 0 0 0 0 0 0 0 0 0 0 0 0
0 0 0 0 0 0 0 0 0 0 0 0 0 0 0 0 0 0 0 0 0 0 0 0 0 0 0 0 0 0 0 0
0 0 0 0 0 0 0 0 0 0 0 0 0 0 0 0 0 0 0 0 0 0 0 0 0 0 0 0 0 0 0 0
0 0 0 0 0 0 0 0 0 0 0 0 0 0 0 0 0 0 0 0 0 0 0 0 0 0 0 0 0 0 0 0
0 0 0 0 0 0 0 0 0 0 0 0 0 0 0 0 0 0 0 0 0 0 0 0 0 0 0 0 0 0 0 0
0 0 0 0 0 0 0 0 0 0 0 0 0 0 0 0 0 0 0 0 0 0 0 0 0 0 0 0 0 0 0 0
0 0 0 0 0 0 0 0 0 0 0 0 0 0 0 0 0 0 0 0 0 0 0 0 0 0 0 0 0 0 0 0
0 0 0 0 0 0 0 0 0 0 0 0 0 0 0 0 0 0 0 0 0 0 0 0 0 0 0 0 0 0 0 0
0 0 0 0 0 0 0 0 0 0 0 0 0 0 0 0 0 0 0 0 0 0 0 0 0 0 0 0 0 0 0 0
0 0 0 0 0 0 0 0 0 0 0 0 0 0 0 0 0 0 0 0 0 0 0 0 0 0 0 0 0 0 0 0
0 0 0 0 0 0 0 0 0 0 0 0 0 0 0 0 0 0 0 0 0 0 0 0 0 0 0 0 0 0 0 0
Wind_Speed_500mb
61 53 46 39 35 32 30 27 27 26 22 17 10 5 2 4 7 10 15 18 21 25 29 32 34 36 38 41 45 48 52 56
64 56 50 45 40 36 35 32 30 27 23 17 11 7 3 3 8 14 19 23 27 31 35 38 40 44 46 49 53 57 60 61
69 63 57 52 46 42 39 37 34 30 25 20 16 10 9 8 12 17 22 27 32 35 37 39 42 46 51 53 56 60 63 65
71 70 64 57 51 45 42 40 39 36 30 25 20 16 15 15 18 21 26 31 35 37 40 43 47 51 55 57 59 61 62 64
72 74 67 61 53 47 44 45 45 41 36 30 24 22 23 24 26 28 31 35 38 41 43 46 50 54 56 59 61 63 64 65
75 75 69 64 58 51 49 51 51 48 43 35 30 30 32 33 37 38 37 38 40 43 46 49 52 56 59 60 63 64 65 66
72 67 65 60 60 57 58 58 57 52 46 40 39 39 41 43 45 46 44 42 42 46 50 54 57 59 61 63 64 65 67 70
60 51 49 49 49 57 61 57 57 53 49 47 47 50 50 50 52 52 50 47 45 49 54 59 61 61 62 64 64 66 68 69
42 39 38 38 42 44 51 54 54 53 52 51 54 55 55 54 54 55 53 51 51 54 58 63 60 62 62 63 63 65 66 66
34 33 34 37 40 42 47 50 52 52 51 54 56 56 57 58 56 56 54 53 53 57 62 60 61 60 61 62 62 63 65 65
32 33 34 37 41 42 44 46 45 43 48 53 52 52 56 58 57 55 54 55 57 61 63 62 61 58 59 60 59 60 59 59
24 27 28 35 40 43 41 40 40 42 48 53 55 56 57 58 56 55 55 57 60 62 62 59 58 57 58 58 54 51 52 52
21 28 34 40 43 44 40 38 42 49 56 59 61 61 59 55 54 55 56 58 62 62 61 60 56 56 56 56 53 46 48 51
30 39 38 43 50 51 47 46 49 56 62 63 60 59 55 54 54 55 56 60 60 60 59 57 56 57 55 51 46 44 40 49
41 48 46 49 56 59 57 54 58 58 59 58 57 55 54 54 54 55 57 58 58 56 56 57 58 59 52 46 46 42 45 55
44 56 54 52 57 59 58 58 57 53 53 55 55 53 53 54 54 57 56 56 55 55 54 55 57 51 41 40 40 44 51 57
48 52 59 57 57 56 56 56 54 52 51 53 53 53 54 55 56 56 57 55 56 55 52 52 52 43 43 38 39 44 59 55
51 52 54 59 57 54 53 54 52 50 50 52 53 54 54 56 57 56 53 54 55 52 52 54 58 57 39 37 35 53 50 44
49 52 53 54 55 52 51 51 49 50 51 52 54 55 57 58 57 57 58 59 53 49 53 56 55 51 43 33 40 45 38 39
50 51 52 53 52 50 49 47 47 49 51 52 55 56 56 57 57 58 59 60 62 58 45 46 53 51 41 40 44 44 41 40
Wind_Direction_500mb
187 185 183 184 187 187 184 181 175 173 174 177 178 174 121 35 10 346 339 340 336 332 330 329 329 328 327 328 328 328 327 326
191 192 194 195 197 198 196 191 190 189 190 196 203 208 251 323 329 329 330 331 327 325 323 323 325 325 326 328 328 328 327 327
197 199 200 203 205 207 202 199 199 201 204 208 222 234 251 283 305 314 318 322 323 319 318 320 321 322 323 324 325 325 325 325
204 207 208 210 211 212 211 209 211 211 213 219 228 241 261 277 291 301 311 317 317 315 316 319 320 321 321 321 321 321 320 320
208 212 215 218 221 220 219 218 218 218 220 228 237 251 263 274 280 293 303 309 312 313 313 316 317 317 317 318 318 318 318 317
211 215 219 224 227 228 227 226 224 222 225 231 241 254 265 271 279 283 290 298 306 309 310 312 313 314 316 316 316 315 316 315
214 218 222 229 235 235 232 229 226 226 229 236 246 256 267 271 275 276 279 287 297 305 309 311 312 312 313 314 315 316 316 315
212 214 229 235 237 237 233 230 228 228 233 241 251 259 266 272 274 272 273 282 291 301 307 310 309 307 310 312 314 315 314 312
213 216 218 227 235 238 231 228 228 230 236 245 255 262 267 270 271 269 272 282 292 298 302 306 304 305 308 311 313 313 311 311
204 214 226 232 236 236 222 220 225 233 243 251 258 263 266 268 268 270 275 283 290 298 304 303 303 305 308 310 312 311 311 311
211 221 226 230 227 222 217 222 232 239 254 257 257 264 267 269 271 274 279 285 293 299 300 300 300 305 306 309 309 308 308 309
218 234 231 221 220 218 218 226 251 259 258 254 256 260 265 267 271 276 280 285 291 296 297 296 299 302 305 308 310 308 307 308
230 240 228 223 219 214 229 256 260 261 259 257 257 258 263 268 272 276 280 287 293 294 293 295 299 301 305 308 308 303 303 307
244 237 228 226 221 226 245 257 264 265 260 256 255 259 265 269 272 276 281 287 289 289 291 294 297 299 303 305 306 306 306 305
239 232 227 233 236 239 247 259 266 264 258 253 255 261 265 268 271 275 281 284 285 286 290 293 296 300 303 310 317 317 311 305
237 229 229 232 240 246 252 259 263 259 252 250 255 260 263 267 271 276 279 280 281 284 286 290 295 301 306 307 306 310 300 298
237 235 232 238 244 244 251 258 257 250 248 253 257 259 263 267 272 275 278 277 280 285 286 288 291 288 295 299 298 294 286 299
243 238 240 244 241 247 251 252 249 248 250 253 255 260 265 268 271 274 273 275 279 280 282 284 285 285 287 289 293 279 290 296
239 243 241 239 244 246 246 244 244 245 250 253 259 263 266 269 271 272 274 277 275 275 280 284 281 279 281 285 276 288 290 295
245 242 241 239 238 239 239 239 243 248 252 257 262 265 266 268 269 271 273 277 281 285 281 276 274 276 277 271 282 286 290 293
Wind_Speed_850mb
61 53 46 39 35 32 30 27 27 26 22 17 10 5 2 4 7 10 15 18 21 25 29 32 34 36 38 41 45 48 52 56
64 56 50 45 40 36 35 32 30 27 23 17 11 7 3 3 8 14 19 23 27 31 35 38 40 44 46 49 53 57 60 61
69 63 57 52 46 42 39 37 34 30 25 20 16 10 9 8 12 17 22 27 32 35 37 39 42 46 51 53 56 60 63 65
71 70 64 57 51 45 42 40 39 36 30 25 20 16 15 15 18 21 26 31 35 37 40 43 47 51 55 57 59 61 62 64
72 74 67 61 53 47 44 45 45 41 36 30 24 22 23 24 26 28 31 35 38 41 43 46 50 54 56 59 61 63 64 65
75 75 69 64 58 51 49 51 51 48 43 35 30 30 32 33 37 38 37 38 40 43 46 49 52 56 59 60 63 64 65 66
72 67 65 60 60 57 58 58 57 52 46 40 39 39 41 43 45 46 44 42 42 46 50 54 57 59 61 63 64 65 67 70
60 51 49 49 49 57 61 57 57 53 49 47 47 50 50 50 52 52 50 47 45 49 54 59 61 61 62 64 64 66 68 69
42 39 38 38 42 44 51 54 54 53 52 51 54 55 55 54 54 55 53 51 51 54 58 63 60 62 62 63 63 65 66 66
34 33 34 37 40 42 47 50 52 52 51 54 56 56 57 58 56 56 54 53 53 57 62 60 61 60 61 62 62 63 65 65
32 33 34 37 41 42 44 46 45 43 48 53 52 52 56 58 57 55 54 55 57 61 63 62 61 58 59 60 59 60 59 59
24 27 28 35 40 43 41 40 40 42 48 53 55 56 57 58 56 55 55 57 60 62 62 59 58 57 58 58 54 51 52 52
21 28 34 40 43 44 40 38 42 49 56 59 61 61 59 55 54 55 56 58 62 62 61 60 56 56 56 56 53 46 48 51
30 39 38 43 50 51 47 46 49 56 62 63 60 59 55 54 54 55 56 60 60 60 59 57 56 57 55 51 46 44 40 49
41 48 46 49 56 59 57 54 58 58 59 58 57 55 54 54 54 55 57 58 58 56 56 57 58 59 52 46 46 42 45 55
44 56 54 52 57 59 58 58 57 53 53 55 55 53 53 54 54 57 56 56 55 55 54 55 57 51 41 40 40 44 51 57
48 52 59 57 57 56 56 56 54 52 51 53 53 53 54 55 56 56 57 55 56 55 52 52 52 43 43 38 39 44 59 55
51 52 54 59 57 54 53 54 52 50 50 52 53 54 54 56 57 56 53 54 55 52 52 54 58 57 39 37 35 53 50 44
49 52 53 54 55 52 51 51 49 50 51 52 54 55 57 58 57 57 58 59 53 49 53 56 55 51 43 33 40 45 38 39
50 51 52 53 52 50 49 47 47 49 51 52 55 56 56 57 57 58 59 60 62 58 45 46 53 51 41 40 44 44 41 40
Wind_Direction_850mb
187 185 183 184 187 187 184 181 175 173 174 177 178 174 121 35 10 346 339 340 336 332 330 329 329 328 327 328 328 328 327 326
191 192 194 195 197 198 196 191 190 189 190 196 203 208 251 323 329 329 330 331 327 325 323 323 325 325 326 328 328 328 327 327
197 199 200 203 205 207 202 199 199 201 204 208 222 234 251 283 305 314 318 322 323 319 318 320 321 322 323 324 325 325 325 325
204 207 208 210 211 212 211 209 211 211 213 219 228 241 261 277 291 301 311 317 317 315 316 319 320 321 321 321 321 321 320 320
208 212 215 218 221 220 219 218 218 218 220 228 237 251 263 274 280 293 303 309 312 313 313 316 317 317 317 318 318 318 318 317
211 215 219 224 227 228 227 226 224 222 225 231 241 254 265 271 279 283 290 298 306 309 310 312 313 314 316 316 316 315 316 315
214 218 222 229 235 235 232 229 226 226 229 236 246 256 267 271 275 276 279 287 297 305 309 311 312 312 313 314 315 316 316 315
212 214 229 235 237 237 233 230 228 228 233 241 251 259 266 272 274 272 273 282 291 301 307 310 309 307 310 312 314 315 314 312
213 216 218 227 235 238 231 228 228 230 236 245 255 262 267 270 271 269 272 282 292 298 302 306 304 305 308 311 313 313 311 311
204 214 226 232 236 236 222 220 225 233 243 251 258 263 266 268 268 270 275 283 290 298 304 303 303 305 308 310 312 311 311 311
211 221 226 230 227 222 217 222 232 239 254 257 257 264 267 269 271 274 279 285 293 299 300 300 300 305 306 309 309 308 308 309
218 234 231 221 220 218 218 226 251 259 258 254 256 260 265 267 271 276 280 285 291 296 297 296 299 302 305 308 310 308 307 308
230 240 228 223 219 214 229 256 260 261 259 257 257 258 263 268 272 276 280 287 293 294 293 295 299 301 305 308 308 303 303 307
244 237 228 226 221 226 245 257 264 265 260 256 255 259 265 269 272 276 281 287 289 289 291 294 297 299 303 305 306 306 306 305
239 232 227 233 236 239 247 259 266 264 258 253 255 261 265 268 271 275 281 284 285 286 290 293 296 300 303 310 317 317 311 305
237 229 229 232 240 246 252 259 263 259 252 250 255 260 263 267 271 276 279 280 281 284 286 290 295 301 306 307 306 310 300 298
237 235 232 238 244 244 251 258 257 250 248 253 257 259 263 267 272 275 278 277 280 285 286 288 291 288 295 299 298 294 286 299
243 238 240 244 241 247 251 252 249 248 250 253 255 260 265 268 271 274 273 275 279 280 282 284 285 285 287 289 293 279 290 296
239 243 241 239 244 246 246 244 244 245 250 253 259 263 266 269 271 272 274 277 275 275 280 284 281 279 281 285 276 288 290 295
245 242 241 239 238 239 239 239 243 248 252 257 262 265 266 268 269 271 273 277 281 285 281 276 274 276 277 271 282 286 290 293